Temp
20 20 20 20 20 21 21 21 21 21 21 20 19 19 20 21 21 20 19 19 19 19 19 19 19 19 18 18 18 18 18 18 18 18 18 18 18 17 18 18 18 18 18
20 20 20 20 20 20 21 20 20 20 20 20 19 19 19 20 20 19 19 19 19 19 19 19 18 18 18 18 17 17 17 18 18 18 18 18 18 18 18 18 18 18 17
20 20 19 19 20 20 20 20 20 20 20 19 19 19 19 19 19 19 19 19 19 19 19 18 18 17 17 17 17 17 17 18 18 18 18 18 18 17 17 18 18 18 18
21 20 19 19 20 20 20 20 20 20 20 20 19 19 19 19 19 19 19 19 19 19 18 17 17 18 18 18 18 18 18 18 18 18 18 17 17 17 17 17 17 18 18
22 21 20 20 20 20 20 20 20 20 20 20 20 20 19 19 19 19 19 19 19 19 18 18 19 19 19 19 18 18 19 19 18 18 18 18 17 17 17 16 16 17 17
22 22 21 21 20 20 20 20 20 20 20 20 20 20 19 19 19 19 19 19 19 19 19 19 20 20 19 19 19 18 18 18 18 18 18 17 17 16 16 16 16 16 16
21 21 21 21 21 21 20 20 20 20 20 20 20 19 19 19 19 19 19 19 19 18 19 19 19 19 19 19 19 19 19 19 19 19 18 17 17 16 16 16 16 16 17
21 21 21 21 21 21 20 20 20 20 20 20 19 19 19 19 19 19 19 19 18 19 18 19 19 19 19 19 19 18 18 18 18 19 18 18 17 16 16 16 17 17 17
21 19 20 20 20 21 20 20 20 20 19 19 19 19 19 19 19 19 19 19 18 18 18 19 19 19 19 19 19 19 18 18 19 19 19 18 17 16 17 18 18 18 18
20 19 19 19 19 20 20 19 19 19 19 19 19 19 19 19 19 19 19 18 19 18 18 18 18 19 19 19 19 19 19 19 19 19 19 19 18 17 18 18 18 18 18
21 20 19 19 19 19 20 19 19 19 19 19 19 19 19 19 19 19 18 18 19 18 18 17 18 19 19 20 19 19 19 19 19 19 19 19 19 18 18 18 18 18 17
19 20 20 20 19 18 18 18 18 19 19 19 19 19 19 19 19 19 18 18 18 18 18 18 18 19 19 19 20 19 19 19 19 19 19 19 19 18 18 18 18 18 17
17 20 22 20 19 18 18 17 18 18 18 18 19 18 19 19 19 19 18 18 18 17 17 18 18 19 19 19 20 20 20 19 20 19 19 19 19 19 18 18 18 18 17
16 19 19 21 19 18 18 17 17 18 18 18 18 18 18 18 18 18 18 18 17 17 18 18 19 19 19 19 19 20 20 20 20 20 19 19 19 19 19 18 18 18 18
16 16 16 17 18 20 18 18 17 17 17 17 17 17 18 18 18 18 18 18 17 16 18 18 19 19 19 19 19 19 20 20 20 20 20 20 19 19 19 19 18 18 18
16 16 15 15 16 18 18 18 18 18 17 17 17 17 17 17 17 17 17 17 17 17 18 18 19 19 19 19 19 19 20 20 20 20 20 20 20 20 19 19 18 18 18
17 17 17 16 16 15 16 17 18 18 18 17 17 16 17 16 17 17 17 17 17 17 18 19 19 19 19 19 20 20 20 20 20 20 20 20 20 20 19 19 18 18 18
18 17 18 18 18 17 17 17 16 18 18 18 17 17 16 16 16 16 17 17 17 17 18 18 19 19 19 19 20 20 20 20 20 20 20 20 20 20 19 19 18 18 17
18 19 17 17 17 17 16 16 15 16 17 18 20 17 16 16 16 16 16 17 18 18 18 18 19 19 19 19 19 20 20 20 20 20 20 20 21 20 20 19 18 17 17
17 18 17 16 16 16 15 15 14 14 16 17 16 17 17 16 16 16 17 18 18 18 18 19 19 19 19 19 19 19 20 20 20 20 20 20 20 20 19 18 18 17 17
16 15 16 15 15 15 14 14 14 15 15 15 15 17 17 17 17 17 17 18 18 18 19 19 19 19 19 19 19 19 19 19 20 20 20 20 20 19 19 18 18 18 18
15 15 15 14 15 15 14 15 15 15 15 15 15 16 16 17 18 18 19 19 19 19 19 19 19 19 19 18 18 17 16 18 19 19 19 20 19 18 18 18 18 18 17
13 14 15 15 14 14 14 15 16 15 15 15 15 16 17 19 19 19 19 19 19 19 19 19 19 19 18 18 17 17 15 15 15 18 18 18 18 18 17 18 17 17 16
14 15 15 16 16 16 13 15 16 15 15 15 15 16 17 18 18 19 19 19 18 18 18 19 19 19 18 18 17 17 17 16 14 15 16 16 17 17 17 17 16 16 16
14 15 15 15 15 15 14 15 14 15 14 14 15 16 17 18 19 19 18 19 18 18 19 19 17 18 19 18 16 15 14 14 15 14 13 15 15 16 16 16 16 16 15
15 15 14 14 14 13 14 14 14 14 14 14 14 14 15 15 16 17 17 17 17 18 17 18 18 18 17 16 16 15 15 14 13 14 12 13 15 15 15 15 15 14 14
Height
759 762 765 768 770 773 776 779 783 787 791 793 795 797 798 801 803 805 808 810 812 814 816 817 819 820 821 821 821 822 823 823 824 824 824 824 825 825 825 825 825 825 825
757 764 766 769 771 774 776 779 783 786 790 794 796 798 800 801 803 806 809 811 814 816 817 819 821 822 823 823 824 824 825 826 826 826 826 826 826 827 827 827 826 827 827
758 764 768 770 773 775 777 780 783 786 789 793 798 799 801 803 804 806 810 812 815 816 819 821 822 824 825 825 826 826 827 828 828 829 828 828 828 829 829 829 829 829 829
757 764 769 772 774 776 779 781 784 787 790 793 797 800 802 804 805 808 810 813 816 818 820 822 823 824 826 827 828 829 829 830 830 830 830 830 831 831 831 831 831 831 831
756 762 768 773 775 777 780 782 785 788 791 793 797 800 802 805 807 809 811 814 816 818 821 823 824 826 828 829 829 830 831 831 832 832 832 832 832 833 832 832 832 832 832
754 759 765 770 774 777 780 783 785 788 791 793 796 799 803 805 807 810 812 814 817 819 821 824 826 827 829 830 831 831 831 833 833 834 834 834 834 835 835 834 834 834 834
752 758 764 769 774 776 779 783 786 789 791 794 797 800 802 805 809 811 813 815 817 820 822 825 827 828 830 831 832 832 833 834 835 835 835 835 836 836 836 836 836 835 834
755 757 762 768 771 775 779 782 785 788 791 793 796 800 803 805 808 811 815 817 819 820 823 825 827 829 831 832 833 833 834 835 836 836 836 836 837 837 837 837 837 837 836
759 762 761 765 770 774 778 782 784 786 790 793 794 798 802 806 808 811 815 818 820 822 823 825 828 829 831 833 834 835 835 836 836 837 837 838 838 838 838 837 837 837 837
759 763 764 766 770 771 774 780 783 786 789 792 795 796 801 805 809 812 815 818 821 823 825 826 828 830 831 833 834 836 835 836 837 837 837 837 838 839 838 838 838 838 838
761 762 762 767 770 773 774 778 781 785 789 792 795 797 800 804 809 812 815 819 822 823 825 827 828 830 832 833 834 835 836 836 837 837 838 838 838 838 839 838 838 838 838
760 762 761 765 768 774 775 777 781 783 787 791 794 797 800 802 806 812 815 819 822 823 825 826 828 830 831 832 833 834 835 835 836 836 837 837 838 837 838 838 838 838 838
756 758 761 761 763 769 775 778 780 782 785 790 793 795 798 802 805 809 815 817 820 822 824 825 827 829 830 831 832 833 834 834 835 836 836 837 837 837 836 837 837 837 837
758 754 757 760 762 765 771 776 779 782 785 787 792 795 798 800 804 806 812 815 818 819 821 824 825 827 829 830 831 832 833 833 833 834 836 836 836 836 836 836 835 836 836
756 759 757 757 760 762 767 773 777 780 784 788 790 793 796 798 801 805 809 813 815 818 820 821 824 826 827 829 830 831 831 832 832 833 833 834 836 836 834 835 834 834 835
752 754 758 761 761 759 763 768 771 775 781 786 788 791 794 796 799 804 808 812 815 816 819 821 822 824 826 827 828 830 830 830 831 832 832 832 833 834 833 834 834 833 833
750 751 754 759 763 765 765 767 768 770 772 781 787 790 791 794 797 802 805 809 812 815 818 821 822 823 824 825 826 828 828 829 829 829 831 829 830 832 833 833 833 833 832
747 747 749 753 757 762 765 766 769 771 772 770 778 788 789 794 797 801 801 804 810 813 816 818 820 820 821 823 824 825 826 826 828 828 828 828 827 829 830 831 831 832 831
740 742 744 748 752 754 757 761 763 765 767 768 766 777 786 791 794 797 798 799 806 811 813 815 817 818 819 821 822 824 824 824 825 825 825 825 825 826 827 828 828 828 828
735 737 739 742 747 749 752 757 761 764 767 766 767 766 777 786 792 797 800 799 805 808 811 813 814 815 817 819 821 821 822 821 823 823 822 821 821 822 824 826 826 826 826
731 733 735 739 740 743 746 750 754 757 757 759 761 760 768 781 788 794 794 799 803 804 806 809 812 813 815 818 819 819 818 818 818 819 816 815 817 817 819 822 821 822 823
725 729 731 733 736 739 741 743 746 749 751 751 757 760 767 773 782 788 791 792 795 798 803 805 807 810 814 816 817 817 819 817 813 815 814 814 815 815 815 818 820 819 821
721 725 726 728 732 734 738 739 744 747 748 750 754 759 763 771 778 782 786 788 791 794 797 800 802 806 809 813 815 815 819 817 815 810 810 812 812 811 814 814 816 817 818
711 717 717 719 721 726 734 735 739 740 740 746 753 756 763 770 774 780 783 785 787 791 793 796 798 800 804 806 809 809 809 810 811 811 810 811 811 809 811 812 812 814 815
702 707 710 711 717 725 730 733 735 739 745 746 751 755 761 767 770 777 780 783 785 788 792 792 795 798 801 803 803 804 805 806 807 803 809 807 808 808 808 809 810 811 812
702 706 708 713 714 719 728 729 734 738 743 747 753 757 761 766 772 776 780 782 786 786 788 788 795 797 798 798 797 799 800 801 805 797 804 802 802 804 806 807 808 810 810
Wind_Speed
20 34 31 28 29 29 29 26 24 23 21 20 19 19 20 19 17 19 21 21 19 15 16 20 19 19 18 19 18 18 20 18 18 18 20 20 17 16 17 17 16 16 16
29 32 30 28 27 29 27 28 25 23 21 19 19 18 20 20 20 21 22 20 17 18 20 20 18 17 17 19 19 18 19 19 17 17 19 20 19 16 16 17 18 18 17
34 31 29 27 28 28 28 27 25 24 22 21 19 20 20 20 21 22 20 17 19 20 20 18 18 17 17 18 18 18 16 16 17 15 16 17 17 17 16 16 19 19 18
35 31 28 26 26 26 28 26 25 24 24 22 21 20 20 20 21 20 20 20 20 20 18 17 16 17 19 20 17 13 11 12 12 13 14 16 16 13 15 15 15 16 16
34 34 29 26 26 25 25 25 23 23 23 23 22 20 21 21 21 20 22 23 21 21 17 16 17 19 21 19 18 17 16 15 13 11 12 13 13 12 12 12 13 13 13
35 35 32 29 26 24 22 23 24 22 23 24 23 21 22 22 21 24 24 22 21 18 17 16 17 20 20 19 17 15 15 13 11 11 13 13 13 12 12 12 12 12 11
36 35 32 28 25 24 22 20 22 23 22 24 23 22 23 24 22 25 23 22 22 17 16 16 18 20 20 17 16 13 13 12 10 11 12 13 12 12 12 11 12 11 11
34 35 33 28 26 23 21 20 20 25 24 24 24 24 24 25 26 24 24 22 24 19 17 17 18 18 18 16 15 13 13 11 10 10 10 11 11 10 11 11 11 10 10
29 31 33 30 26 22 19 18 19 24 25 26 26 25 25 25 27 26 24 21 23 19 18 18 17 17 17 16 14 13 10 10 8 9 9 9 10 9 9 9 9 9 8
27 28 28 27 25 25 22 18 20 20 24 25 26 26 26 26 29 27 20 21 20 18 18 17 16 15 15 14 13 12 11 10 7 7 7 7 7 7 7 6 6 6 6
22 27 27 26 24 23 22 21 19 21 24 24 25 26 28 27 29 26 23 24 20 19 17 17 15 14 13 13 13 13 11 8 8 7 4 4 4 5 5 5 4 4 4
21 25 27 27 25 22 21 21 19 21 24 24 26 28 29 30 30 28 24 25 23 21 20 17 15 14 13 13 13 14 11 8 8 8 5 3 4 5 4 4 3 2 1
24 26 25 30 30 26 22 20 19 19 24 26 28 32 33 35 30 29 26 25 24 22 21 19 17 15 13 12 12 13 10 8 8 8 5 3 4 5 5 5 4 2 2
20 26 26 26 31 30 25 22 19 18 22 29 30 34 34 35 32 33 31 30 26 25 23 20 18 16 15 13 11 11 9 9 9 9 7 5 3 5 5 6 5 4 5
19 23 27 29 28 29 30 27 23 19 22 28 34 36 37 37 36 33 32 30 29 26 24 21 18 16 15 12 12 12 9 9 11 10 10 7 6 4 5 6 6 6 7
17 24 27 26 27 30 29 31 27 24 20 24 31 35 36 37 33 34 31 32 29 27 25 21 19 17 15 12 12 12 10 12 12 12 15 10 9 8 5 5 6 6 7
17 20 24 28 26 25 27 29 25 27 29 22 25 27 38 33 34 37 35 32 33 28 25 21 20 17 16 15 14 15 13 14 13 12 13 15 13 13 9 8 9 9 8
20 18 23 23 25 27 31 30 31 31 28 24 26 32 27 24 29 32 38 35 35 30 28 25 21 19 18 17 17 15 15 14 14 12 13 15 16 14 12 11 11 10 9
26 23 22 23 26 28 29 30 30 35 35 36 29 32 34 35 31 30 35 40 34 33 30 26 23 22 20 17 15 15 15 16 15 15 15 13 12 16 17 14 10 8 7
26 26 21 20 23 25 28 28 30 30 34 35 39 39 34 33 38 40 37 32 36 32 29 26 24 20 19 18 16 15 15 14 16 17 17 14 14 18 16 13 10 7 8
29 22 21 20 22 23 25 25 28 31 33 37 37 40 39 40 43 44 40 36 34 31 30 27 23 20 18 16 14 14 15 15 19 21 18 19 16 16 16 13 10 7 9
25 19 16 17 22 26 26 27 27 31 30 33 34 33 35 40 42 41 39 35 33 32 28 26 23 19 19 16 8 3 2 7 18 24 20 18 21 19 17 14 10 8 8
27 27 23 18 14 19 25 33 26 25 21 24 28 33 34 36 38 37 35 33 31 32 31 27 26 23 19 18 16 5 1 4 2 8 18 18 22 19 15 13 11 10 8
29 27 17 15 16 19 26 26 27 22 13 19 24 29 31 32 32 32 32 31 28 29 29 28 26 27 25 19 14 22 16 7 4 2 5 14 16 16 14 13 11 10 8
19 22 17 15 20 32 30 24 28 22 13 24 18 19 18 21 24 29 27 24 22 19 18 20 18 18 21 20 19 10 15 12 10 4 4 6 11 12 12 12 12 11 9
14 19 20 23 32 37 31 26 26 23 21 21 21 18 17 15 17 20 23 17 14 14 15 13 15 20 24 25 24 23 16 6 9 6 3 4 6 6 8 11 12 10 10
Wind_Direction
182 169 172 165 161 160 160 161 160 156 151 147 143 141 143 140 136 135 134 130 129 129 125 119 115 116 114 113 107 107 106 105 107 102 96 95 86 84 84 76 83 87 78
169 169 172 166 162 162 163 163 162 160 157 153 146 148 147 144 139 137 139 135 137 125 121 116 118 119 115 114 111 108 105 104 108 107 103 97 91 88 83 77 88 84 81
163 170 172 169 167 163 163 166 166 163 163 156 154 153 152 149 144 141 142 140 134 125 122 119 120 121 121 118 114 112 110 101 104 106 109 101 97 88 89 86 81 77 77
167 170 172 172 170 167 167 168 171 170 166 161 158 161 156 152 149 148 152 143 136 130 127 126 125 125 125 120 112 105 114 123 110 105 112 106 98 93 85 87 86 86 79
169 173 174 173 172 172 173 172 172 174 172 167 166 168 162 156 159 153 148 147 145 142 139 129 127 127 129 122 113 107 105 114 113 103 111 109 103 96 95 94 91 83 81
169 175 176 175 176 174 177 178 177 177 180 175 173 171 169 161 156 156 153 153 153 150 142 139 133 133 135 128 119 116 118 115 109 102 106 102 96 93 89 87 87 84 83
170 177 175 176 179 179 180 182 184 181 186 183 180 178 172 166 164 159 161 159 153 151 151 144 139 138 139 132 125 120 125 115 97 107 109 106 100 96 93 90 87 86 84
172 175 175 179 180 183 184 187 188 187 190 188 185 182 178 170 169 165 162 158 157 163 156 150 145 143 144 139 131 119 126 127 102 104 108 109 106 102 98 96 91 85 81
174 177 177 178 180 182 183 190 190 189 193 191 188 183 180 175 171 166 166 166 165 172 164 154 150 147 148 147 139 131 128 137 116 106 104 112 114 112 107 101 95 89 82
173 176 177 178 179 179 180 187 190 192 192 193 189 183 179 177 170 165 170 162 171 175 168 160 157 156 154 154 152 142 143 144 141 130 107 118 126 126 118 109 99 90 81
183 184 177 179 182 183 180 183 187 193 196 193 190 186 178 176 170 172 175 167 171 172 176 173 167 163 159 156 158 156 153 153 156 156 139 124 144 142 133 123 109 94 77
193 190 185 183 183 184 184 183 187 188 192 192 190 184 181 178 174 180 177 176 178 180 186 180 172 169 166 164 164 169 168 174 186 184 178 176 190 180 168 157 147 126 87
196 193 204 192 183 186 189 185 187 187 189 192 192 184 180 174 176 177 179 182 182 188 189 182 179 180 176 169 173 175 178 185 186 186 187 199 209 210 204 202 205 228 274
217 197 198 200 187 185 188 187 184 189 191 191 190 185 183 179 182 179 183 189 187 192 188 187 187 185 185 184 180 181 187 199 200 205 213 212 225 222 222 226 229 256 279
228 214 196 186 191 191 185 181 182 181 192 196 188 187 188 186 185 183 186 192 194 193 194 192 191 193 192 197 197 200 208 211 205 209 212 219 229 222 221 237 242 258 273
237 223 207 198 184 178 184 183 187 188 190 199 190 190 192 191 189 191 192 195 200 197 197 198 196 194 198 207 209 215 218 214 220 228 219 223 231 227 230 225 239 252 269
245 228 219 216 209 207 193 182 170 191 191 195 208 204 195 196 194 196 195 199 206 205 201 200 200 204 212 212 216 221 223 220 238 236 223 237 242 228 228 237 245 262 273
246 227 222 220 222 221 226 225 226 211 208 201 204 213 196 211 200 198 197 204 210 207 203 203 205 210 213 217 219 218 225 227 236 237 252 247 247 234 232 234 242 263 278
237 228 219 219 228 231 224 228 231 230 223 223 212 219 223 216 202 202 215 211 210 207 204 206 209 213 215 216 216 218 227 230 231 232 241 254 246 236 227 224 236 249 275
223 220 216 216 226 224 223 224 224 221 220 210 203 200 206 198 206 205 212 210 205 203 206 206 210 210 213 219 222 227 231 233 239 237 241 244 251 247 223 216 227 244 275
215 206 209 215 223 227 209 209 210 215 208 206 198 194 195 200 206 206 207 203 203 203 205 206 208 212 213 215 219 236 244 243 239 232 222 233 230 210 204 215 221 244 274
193 198 194 215 218 217 206 205 208 204 195 187 192 193 193 198 204 204 203 201 202 204 207 205 205 207 214 211 206 174 252 251 240 236 241 234 216 202 199 207 227 245 268
202 202 195 191 196 217 210 204 201 187 181 177 186 193 198 201 201 207 208 207 208 208 206 205 206 212 206 214 217 196 138 233 314 250 239 221 204 196 206 207 219 234 251
208 210 218 225 239 240 223 198 194 187 173 181 189 190 202 203 207 209 209 210 211 208 203 207 209 215 209 200 212 235 234 212 191 315 250 225 212 203 200 204 212 220 245
203 211 222 229 225 225 217 198 172 169 176 170 183 185 195 202 205 208 209 206 204 210 221 230 220 233 232 234 215 213 224 212 217 139 223 205 212 211 228 225 213 226 247
211 207 217 223 238 214 204 177 166 167 170 160 182 188 185 193 205 204 204 189 195 209 219 215 245 238 237 235 235 236 226 184 240 159 202 203 191 192 219 218 220 233 243